Location: Most
(50.5133°N, 13.6207°E)
Time: 09:43:56
(UTC+02:00)

ISS - Pass Details

Date: 17 July 2018
Orbit: 402 x 408 km, 51.6° (Epoch: 17 July)

Event Time Altitude Azimuth Distance (km) Brightness Sun altitude
Exits shadow 01:41:12 32° 258° (WSW) 730 -2.8 -18.0°
Maximum altitude 01:42:37 88° 349° (N) 412 -3.9 -17.9°
Drops below altitude 10° 01:45:55 10° 77° (ENE) 1,471 -0.7 -17.8°
Sets 01:48:00 0° 78° (ENE) 2,334 0.3 -17.8°
